Volver al catálogo

STARLINK-4367

ActivoComunicacionesSSO
NORAD 53229·PAYLOAD·🇺🇸 United States

Lanzado Jul 22, 2022 desde Vandenberg Space Force Base

Loading…

Próximos Pases (próximas 24 horas)

TLE

ActualizadoSource: CelesTrak SupGP

Época: Sep 14, 2026, 22:05 UTC

1 53229C 22084AS  26257.92062500  .00320790  00000+0  11819-1 0  2571
2 53229  97.2844 313.8030 0001710  89.4931 352.8380 15.27728715    13

Sigue STARLINK-4367 en tiempo real con AllMySat

Download on the App Store